Weather History for CYYJ - November, 2011

Change the Weather History Date:

Thursday, November 24, 2011

  Actual Average Record
Temperature  
Mean Temperature 38 °F -  
Max Temperature 46 °F 45 °F 57 °F (2004)
Min Temperature 29 °F 34 °F 19 °F (2010)
Degree Days  
Heating Degree Days 28    
Moisture  
Dew Point 36 °F    
Average Humidity 80    
Maximum Humidity 93    
Minimum Humidity 61    
Precipitation  
Precipitation 0.16 in 0.20 in - ()
Sea Level Pressure  
Sea Level Pressure 29.63 in    
Wind  
Wind Speed 10 mph ()    
Max Wind Speed 31 mph    
Max Gust Speed 47 mph    
Visibility 16.6 miles    
Events Rain    
Averages and records for this station are not official NWS values.
T = Trace of Precipitation, MM = Missing Value Source: Averaged Metar Reports

Daily Weather History Graph

Daily Weather History Graph

Search for Another Location

Airport or City:

Trip Planner

Search our weather history database for the weather conditions in past years. The results will help you decide how hot, cold, wet, or windy it might be!

Date:

Astronomy

Nov. 24, 2011 Rise Set
Actual Time 7:35 AM PST 4:25 PM PST
Civil Twilight 6:59 AM PST 5:00 PM PST
Nautical Twilight 6:20 AM PST 5:39 PM PST
Astronomical Twilight 5:43 AM PST 6:16 PM PST
Moon 7:02 AM PST (11/24) 3:57 PM PST (11/24)
Length of Visible Light 10h 00m
Length of Day
8h 49m
Waning Crescent, 0% of the Moon is Illuminated
Nov 24
Waning Crescent
Nov 24
New
Dec 2
First Quarter
Dec 10
Full
Dec 17
Last Quarter

Hourly Weather History & Observations

Time (PST) Temp. Windchill Dew Point Humidity Pressure Visibility Wind Dir Wind Speed Gust Speed Precip Events Conditions
12:00 AM 30.2 °F - 26.6 °F 86% 29.81 in 30.0 mi Calm Calm - N/A   Partly Cloudy
1:00 AM 32.0 °F - 30.2 °F 93% 29.82 in 30.0 mi Calm Calm - N/A   Mostly Cloudy
2:00 AM 37.4 °F - 33.8 °F 87% 29.81 in 30.0 mi Calm Calm - N/A   Overcast
3:00 AM 39.2 °F 37.0 °F 35.6 °F 87% 29.79 in 30.0 mi ESE 3.5 mph - N/A   Mostly Cloudy
3:51 AM 42.8 °F 36.6 °F - N/A% - 30.0 mi SE 11.5 mph - N/A   Overcast
4:00 AM 42 °F - 38 °F 81% 29.78 in 28 mi SE 10.4 mph - -   Overcast
4:00 AM 42.8 °F 37.5 °F 37.4 °F 81% 29.78 in 30.0 mi ESE 9.2 mph - N/A   Overcast
5:00 AM 42.8 °F 36.6 °F 37.4 °F 81% 29.75 in 30.0 mi ESE 11.5 mph - N/A   Overcast
6:00 AM 42.8 °F 36.2 °F 37.4 °F 81% 29.71 in 30.0 mi SE 12.7 mph - N/A   Overcast
6:31 AM 42.8 °F 36.6 °F - N/A% - 30.0 mi ESE 11.5 mph 17.3 mph N/A   Overcast
7:00 AM 42.8 °F 35.4 °F 37.4 °F 81% 29.68 in 30.0 mi ESE 15.0 mph 20.7 mph N/A   Mostly Cloudy
7:22 AM 42.8 °F 34.8 °F - N/A% - 30.0 mi ESE 17.3 mph 25.3 mph N/A   Overcast
8:00 AM 44.6 °F 36.1 °F 39.2 °F 81% 29.65 in 30.0 mi SE 21.9 mph 32.2 mph N/A   Overcast
8:40 AM 44.6 °F 36.1 °F - N/A% - 30.0 mi SE 21.9 mph 33.4 mph N/A Rain Light Rain
10:00 AM 44 °F - 39 °F 76% 29.57 in 28 mi SE 19.6 mph - - Rain Light Rain
10:00 AM 44.6 °F 36.9 °F 39.2 °F 81% 29.57 in 30.0 mi SE 18.4 mph 31.1 mph N/A Rain Light Rain
11:00 AM 44.6 °F 35.7 °F 39.2 °F 81% 29.54 in 15.0 mi SE 24.2 mph 32.2 mph N/A Rain Light Rain
12:00 PM 44.6 °F 34.9 °F 39.2 °F 81% 29.47 in 15.0 mi SE 28.8 mph 38.0 mph N/A Rain Light Rain
1:00 PM 44.6 °F 34.6 °F 37.4 °F 76% 29.42 in 20.0 mi SE 31.1 mph 47.2 mph N/A Rain Light Rain
2:00 PM 44.6 °F 35.9 °F 37.4 °F 76% 29.44 in 12.0 mi SSE 23.0 mph 41.4 mph N/A Rain Light Rain
3:00 PM 42.8 °F 34.5 °F 39.2 °F 87% 29.44 in 15.0 mi SSE 18.4 mph 27.6 mph N/A Rain Light Rain
4:00 PM 43 °F - 40 °F 85% 29.47 in 19 mi SSE 17.3 mph - - Rain Light Rain
4:00 PM 42.8 °F 35.1 °F 39.2 °F 87% 29.47 in 20.0 mi SSE 16.1 mph 21.9 mph N/A Rain Light Rain
5:00 PM 44.6 °F 37.8 °F 39.2 °F 81% 29.48 in 30.0 mi South 15.0 mph 21.9 mph N/A   Mostly Cloudy
5:22 PM 46.4 °F 39.8 °F - N/A% - 30.0 mi SSW 16.1 mph - N/A Rain Light Rain
7:00 PM 42.8 °F 34.0 °F 37.4 °F 81% 29.55 in 30.0 mi SSW 20.7 mph 36.8 mph N/A Rain Light Rain
8:00 PM 42.8 °F 36.6 °F 37.4 °F 81% 29.59 in 30.0 mi South 11.5 mph 20.7 mph N/A Rain Light Rain
9:00 PM 42.8 °F 35.8 °F 33.8 °F 70% 29.64 in 30.0 mi WSW 13.8 mph 23.0 mph N/A   Scattered Clouds
9:26 PM 42.8 °F 36.2 °F - N/A% - 30.0 mi SW 12.7 mph 18.4 mph N/A Rain Light Rain Showers
9:48 PM 41.0 °F 34.3 °F - N/A% - 30.0 mi SW 11.5 mph - N/A   Partly Cloudy
10:00 PM 41 °F - 33 °F 63% 29.69 in 28 mi SSW 8.1 mph - - Rain Light Rain Showers
10:00 PM 41.0 °F 35.2 °F 32.0 °F 70% 29.69 in 30.0 mi SSW 9.2 mph - N/A   Partly Cloudy
11:00 PM 42.8 °F 34.5 °F 30.2 °F 61% 29.73 in 30.0 mi WSW 18.4 mph 25.3 mph N/A   Partly Cloudy